Regional Weather Roundup
Issued by NWS

Home | Current Version | Previous Version | Graphics & Text | Print | Product List | Glossary On
Versions: 1 2 3 4 5 6 7 8 9 10 11 12 13 14 15 16 17 18 19 20 21 22 23 24 25 26 27 28 29 30 31 32 33 34 35 36 37 38 39 40 41 42 43 44 45 46 47 48 49 50
000
ASUS45 KBOU 031807
RWRCO

WEATHER ROUNDUP FOR COLORADO
NATIONAL WEATHER SERVICE DENVER/BOULDER CO
1100 AM MST TUE MAR 03 2015

NOTE: "FAIR" INDICATES FEW OR NO CLOUDS BELOW 12000 FEET WITH NO
SIGNIFICANT WEATHER AND/OR OBSTRUCTIONS TO VISIBILITY.

COZ001>005-013-030-031-031900-
...NORTHWEST COLORADO...

CITY           SKY/WX    TMP DP  RH WIND       PRES   REMARKS
CRAIG          CLOUDY    32  26  78 E5        29.75F WCI  27
HAYDEN         MOSUNNY   27  21  80 E5        29.74F WCI  21
MEEKER         CLOUDY    36  23  59 SW17G23   29.74F
MOUNT WERNER   NOT AVBL
STEAMBOAT SPGS CLOUDY    31  20  65 S9        29.74S WCI  23
WALDEN         MOSUNNY   28  18  64 SW14G20   29.69F WCI  17
$$

COZ006>008-011-031900-
...WEST CENTRAL VALLEYS...

CITY           SKY/WX    TMP DP  RH WIND       PRES   REMARKS
GRAND JUNCTION CLOUDY    39  30  70 N6        29.80F
MONTROSE       PTSUNNY   39  21  48 CALM      29.81F
EAGLE          PTSUNNY   36  25  64 SW17      29.77S
RIFLE          CLOUDY    38  24  57 SW15      29.77F
DELTA          CLOUDY    42  27  54 SE5       29.81F
NUCLA          CLOUDY    36  27  69 SW8       29.86F
$$

COZ017>023-064>068-031900-
...SOUTHWEST COLORADO...

CITY           SKY/WX    TMP DP  RH WIND       PRES   REMARKS
DURANGO        PTSUNNY   34  26  72 SW5       29.86F WCI  30
CORTEZ         PTSUNNY   41  28  60 S10       29.86F
PAGOSA SPRINGS CLOUDY    32  22  66 S12       29.86F WCI  23
TELLURIDE      PTSUNNY   29  12  48 W3        29.79F
WOLF CREEK PAS   N/A     12  10  92 MISG      29.81F
$$

COZ009-010-012-014-032>034-037-058>063-031900-
...CENTRAL COLORADO...

CITY           SKY/WX    TMP DP  RH WIND       PRES   REMARKS
ASPEN          PTSUNNY   30  20  66 N5        29.73F WCI  25
BUENA VISTA    PTSUNNY   34  11  37 W6        29.74F WCI  29
COPPER MTN     PTSUNNY   19   9  63 SW12G21   29.70F HAZE    WCI   7
BERTHOUD PASS  LGT SNOW   9   3  78 W13G20    29.69S WCI  -7
COTTONWOOD PAS CLOUDY    32   9  37 NW5       29.73F WCI  27
GUNNISON       MOSUNNY   30  16  55 SW6       29.80F WCI  24
KREMMLING      LGT SNOW  30  23  74 E5        29.75F WCI  25
LEADVILLE      PTSUNNY   22   6  50 S12       29.71F WCI  10
SALIDA         MOSUNNY   38  14  37 W14G23    29.83F
SUNLIGHT       LGT SNOW  21  19  93 CALM        N/A
WILKERSON PASS PTSUNNY   23  12  63 SW6       29.74F WCI  16
$$

COZ069>075-031900-
...SAN LUIS VALLEY/SANGRE DE CRISTO MOUNTAINS...

CITY           SKY/WX    TMP DP  RH WIND       PRES   REMARKS
ALAMOSA        SUNNY     35  20  54 S22G29    29.81S WCI  23
LA VETA PASS   SUNNY     30  16  55 S13G26    29.79R WCI  20
SAGUACHE       SUNNY     34  18  51 SE8       29.78F WCI  27
$$

COZ035-036-038>040-031900-
...NORTHERN COLORADO FRONT RANGE...

CITY           SKY/WX    TMP DP  RH WIND       PRES   REMARKS
DENVER INTL AP LGT SNOW  20  15  81 NE16      29.90S WCI   6
DMNS CITY PARK   N/A     20  15  78 NE8G16    29.90F WCI  11
AURORA         LGT SNOW  19  15  85 NE12      29.89F FOG     WCI   7
FRONT RANGE AP NOT AVBL
ERIE MUNI ARPT LGT SNOW  22  16  76 NE9       29.92S WCI  12
BOULDER MUN AP LGT SNOW  23  19  86 NE8       29.91F WCI  14
CENTENNIAL     CLOUDY    21  16  81 NE9       29.86F WCI  11
BROOMFIELD     LGT SNOW  21  18  86 NE12      29.90S WCI   9
FORT COLLINS   MOSUNNY   21  16  79 NE7       29.95S WCI  13
LONGMONT       LGT SNOW  27  17  66 NE9       29.95S WCI  18
$$

COZ041-046-047-076>085-087-088-031900-
...PIKES PEAK/PALMER DIVIDE AND SOUTHERN FOOTHILLS...

CITY           SKY/WX    TMP DP  RH WIND       PRES   REMARKS
COLO. SPRINGS  PTSUNNY   28  21  75 N20       29.79F WCI  15
A. F. ACADEMY  DRIZZLE   23  19  84 N21       29.78F WCI   8
ELLICOTT       NOT AVBL
FALCON         CLOUDY    24  19  83 N21G29    29.78F WCI   9
FORT CARSON    MOSUNNY   30  22  71 N20G26    29.77F WCI  17
LIMON          NOT AVBL
MONUMENT HILL  LGT SNOW  19  18  93 N9        29.79F WCI   9
TRINIDAD       MOSUNNY   49  20  31 E7        29.78R
$$

COZ042>045-048>051-090-091-031900-
...NORTHEAST COLORADO...

CITY           SKY/WX    TMP DP  RH WIND       PRES   REMARKS
GREELEY ARPT   PTSUNNY   21  12  68 NE6       29.95S WCI  14
AKRON          CLOUDY    20  12  71 N15       29.93R WCI   6
BURLINGTON     CLOUDY    26  20  77 N22G30    29.87S WCI  12
WRAY           CLOUDY    26  15  62 N21G29    29.95R WCI  12
STERLING       FLURRIES  25  12  58 N13G21    29.97R WCI  13
HOLYOKE        NOT AVBL
FORT MORGAN    LGT SNOW  22  13  69 N9        29.96S WCI  11
$$

COZ086-089-092>099-031900-
...SOUTHEAST COLORADO...

CITY           SKY/WX    TMP DP  RH WIND       PRES   REMARKS
PUEBLO         MOSUNNY   39  27  62 NE22      29.80R
LA JUNTA       PTSUNNY   38  30  73 N22G28    29.84R
LAMAR          CLOUDY    37  30  75 NE16      29.85R
SPRINGFIELD      N/A     52  22  30 W8        29.78S
$$


USA.gov is the U.S. government's official web portal to all federal, state and local government web resources and services.